Regional Weather Roundup
Issued by NWS

Home | Current Version | Previous Version | Text Only | Print | Product List | Glossary Off
Versions: 1 2 3 4 5 6 7 8 9 10 11 12 13 14 15 16 17 18 19 20 21 22 23 24 25 26 27 28 29 30 31 32 33 34 35 36 37 38 39 40 41 42 43 44 45 46 47 48 49 50

000
ASUS43 KLOT 201603
RWRIL

ILLINOIS REGIONAL WEATHER ROUNDUP
NATIONAL WEATHER SERVICE CHICAGO/ROMEOVILLE IL
1000 AM CST FRI JAN 20 2017

NOTE: "FAIR" INDICATES FEW OR NO CLOUDS BELOW 12,000 FEET WITH NO
SIGNIFICANT WEATHER AND/OR OBSTRUCTIONS TO VISIBILITY.

* THESE STATIONS ARE NOT UNDER NWS QUALITY CONTROL. THEY ALSO MAY NOT
  REPORT WEATHER SUCH AS PRECIPITATION OR FOG.

ILZ001-002-007-009-015-016-024-201700-
NORTHWEST ILLINOIS

CITY           SKY/WX    TMP DP  RH WIND       PRES   REMARKS
MOLINE         CLOUDY    39  36  89 S3        29.65R FOG
STERLING*      FOG       38  37  97 E6        29.65F VSB 1   WCI  33
SAVANNA*       CLOUDY    38  38  98 E3        29.66R FOG
$$

ILZ003-004-008-010-011-017-018-201700-
NORTH CENTRAL ILLINOIS

CITY           SKY/WX    TMP DP  RH WIND       PRES   REMARKS
ROCKFORD       CLOUDY    40  38  93 S5        29.68R FOG
FREEPORT*      FOG       37  37  99 E5        29.68R VSB 1/2 WCI  33
ROCHELLE*      FOG       37  37 100 S3        29.67R VSB 1
DE KALB*       CLOUDY    38  38  99 SE5       29.67R FOG     WCI  35
$$

ILZ005-006-012>014-019>023-201700-
NORTHEAST ILLINOIS

CITY           SKY/WX    TMP DP  RH WIND       PRES   REMARKS
CHICAGO-OHARE  CLOUDY    39  37  92 NE9       29.64S FOG     WCI  33
CHICAGO-MIDWAY CLOUDY    38  37  97 NE10      29.64F FOG     WCI  31
AURORA         NOT AVBL
LANSING*       CLOUDY    39  39 100 NE3       29.64F FOG
JOLIET*        CLOUDY    40  40  99 CALM      29.68R FOG
WAUKEGAN       FOG       38  38 100 NE3       29.67R VSB 3/4
DUPAGE AIRPORT CLOUDY    39  38  96 CALM      29.65R FOG
WHEELING       CLOUDY    39  37  92 E3        29.68R FOG
MORRIS*        CLOUDY    38  38  97 CALM      29.66R FOG
ROMEOVILLE*    CLOUDY    39  39 100 S3        29.67R FOG
NORTHERLY ISL    N/A     37  36  96 CALM        N/A
$$

LMZ740>746-201700-
SOUTHERN LAKE MICHIGAN

STATION/POSITION SKY/WX   TEMP    WIND        PRES    VSBY  WAVE
                          AIR SEA DIR/SP/G                  HT/PER
                          (F)     (DEG/KT/KT) (MB)    (MI)  (FT/S)
HARRISON CRIB              38      CALM  /  1   N/A
BURNHAM HARBOR             37      30/  6       N/A
CALUMET HARBOR             37      50/  1/  3 1004.0R
BURNS HARBOR               34     360/  2/  3 1005.1R
$$

ILZ025>027-034>036-040-047-049-050-058-095>099-201700-
WEST-CENTRAL ILLINOIS

CITY           SKY/WX    TMP DP  RH WIND       PRES   REMARKS
QUINCY         FOG       44  44 100 S6        29.65R VSB 1/2
GALESBURG*     CLOUDY    39  39 100 CALM      29.64S FOG
MACOMB*        CLOUDY    39  39 100 S9        29.69R FOG     WCI  33
JACKSONVILLE*  CLOUDY    44  44  99 S5        29.67R FOG
PITTSFIELD*    CLOUDY    46  46 100 S3        29.66S
$$

ILZ028>032-037-038-041>044-048-051>054-059>061-201700-
CENTRAL ILLINOIS

CITY           SKY/WX    TMP DP  RH WIND       PRES   REMARKS
BLOOMINGTON    FOG       43  43 100 SW6       29.66S VSB 1/2
DECATUR        CLOUDY    47  32  56 S6        29.68R FOG
PEORIA         FOG       41  41 100 SW3       29.65F VSB 1/4
LACON*         CLOUDY    38  38 100 CALM      29.66R FOG
LINCOLN*       CLOUDY    45  45 100 SW5       29.68R
SPRINGFIELD    FOG       46  45  96 SW5       29.68R VSB 1/2
TAYLORVILLE    CLOUDY    46  46 100 CALM      29.69R
$$

ILZ033-039-045-046-055>057-062-063-201700-
EAST-CENTRAL ILLINOIS

CITY           SKY/WX    TMP DP  RH WIND       PRES   REMARKS
CHAMPAIGN      FOG       46  45  96 S8        29.68S VSB 3/4
MATTOON        FOG       47  46  97 S8        29.70R VSB 1
PARIS*         CLOUDY    47  47 100 SW8       29.71R FOG
$$

ILZ079-100>102-201700-
SOUTHWEST ILLINOIS

CITY           SKY/WX    TMP DP  RH WIND       PRES   REMARKS
CAHOKIA*       CLOUDY    52  48  86 S6        29.67S
SPARTA*        CLOUDY    50  47  90 S5        29.71S
$$

ILZ064>066-069>071-074>076-080>082-084>086-088>090-092>094-201700-
SOUTH-CENTRAL ILLINOIS

CITY           SKY/WX    TMP DP  RH WIND       PRES   REMARKS
CARBONDALE     CLOUDY    53  50  89 S6        29.71S
CAIRO*         CLOUDY    54  53  97 S6        29.74R FOG
EFFINGHAM*     CLOUDY    49  49 100 CALM      29.72S FOG
MARION         PTSUNNY   57  54  88 S8        29.73R
MT. VERNON     CLOUDY    52  49  89 S13       29.72R
CENTRALIA*     CLOUDY    52  50  94 S8        29.70S
SALEM*         CLOUDY    52  49  89 S8        29.71R
$$

ILZ067-068-072-073-078-083-087-091-201700-
SOUTHEAST ILLINOIS

CITY           SKY/WX    TMP DP  RH WIND       PRES   REMARKS
LAWRENCEVILLE  CLOUDY    54  51  90 SW9       29.72R
FLORA*         CLOUDY    53  50  89 S10       29.72S
FAIRFIELD*     CLOUDY    52  49  89 S7        29.71S
HARRISBURG*    CLOUDY    55  50  85 SW9       29.74R
ROBINSON*      RAIN      50  50 100 SW8       29.74R
CARMI*         CLOUDY    55  49  82 SW12      29.73F
$$

ABBREVIATIONS USED IN REMARKS
   TC - TEMPERATURE IN CELSIUS
  WCI - WIND CHILL INDEX
   HX - HEAT INDEX
  VSB - VISIBILITY
$$





USA.gov is the U.S. government's official web portal to all federal, state and local government web resources and services.